Location: Newark
(47.5783°N, 6.7622°E)
Time: 09:26:13
(UTC+00:00)

S-56A Canister/Altair - Visible Passes

Search period start: 17 February 2020 00:00
Search period end: 27 February 2020 00:00
Orbit: 633 x 2499 km, 38.9° (Epoch: 17 February)

Date Brightness Start Highest point End Pass type
(mag) Time Alt. Az. Time Alt. Az. Time Alt. Az.
17 Feb 10.7 18:25:27 10° W 18:33:09 21° SW 18:39:08 10° S visible
18 Feb 10.8 17:51:22 10° W 18:00:25 26° SW 18:07:17 10° S visible
19 Feb 10.8 17:17:22 10° W 17:27:36 30° SW 17:35:16 10° SSE visible
21 Feb 11.4 18:19:50 10° WSW 18:24:14 13° SW 18:28:09 10° SSW visible
22 Feb 11.4 17:44:50 10° W 17:51:32 16° SW 17:57:12 10° SSW visible
